SCP
0 0 0 0 0 0 0 0 0 0 0 0 0 0 0 0 0 0 0 0 0 0 0 0 0 0 0 0 0 0 0 0 0 0 0 1 1 1 0 0 0 0 0 0
0 0 0 0 0 0 0 0 0 0 0 0 0 0 0 0 0 0 0 0 0 0 0 0 0 0 0 0 0 0 0 0 0 0 0 1 1 1 0 0 0 0 0 0
0 0 0 0 0 0 0 0 0 0 0 0 0 0 0 0 0 0 0 0 0 0 0 0 0 0 0 0 0 0 0 0 0 0 0 0 1 1 0 0 0 0 0 0
0 0 0 0 0 0 0 0 0 0 0 0 0 0 0 0 0 0 0 0 0 0 0 0 0 0 0 0 0 0 0 0 0 0 0 0 1 0 0 0 0 0 0 0
0 0 0 0 0 0 0 0 0 0 0 0 0 0 0 0 0 0 0 0 0 0 0 0 0 0 0 0 0 0 0 0 0 0 0 0 0 0 0 0 0 0 0 0
0 0 0 0 0 0 0 0 0 0 0 0 0 0 0 0 0 0 0 0 0 0 0 0 0 0 0 0 0 0 0 0 0 0 0 0 0 0 0 0 0 0 0 0
0 0 0 0 0 0 0 0 0 0 0 0 0 0 0 0 0 0 0 0 0 0 0 0 0 0 0 0 0 0 0 0 0 0 0 0 0 0 0 0 0 0 0 0
0 0 0 0 0 0 0 0 0 0 0 0 0 0 0 0 0 0 0 0 0 0 0 0 0 0 0 0 0 0 0 0 0 0 0 0 0 0 0 0 0 0 0 0
0 0 0 0 0 0 0 0 0 0 0 0 0 0 0 0 0 0 0 0 0 0 0 0 0 0 0 0 0 0 0 0 0 0 0 0 0 0 0 0 0 0 0 0
0 0 0 0 0 0 0 0 0 0 0 0 0 0 0 0 0 0 0 0 0 0 0 0 0 0 0 0 0 0 0 0 0 0 0 0 0 0 0 0 0 0 0 0
0 0 0 0 0 0 0 0 0 0 0 0 0 0 0 0 0 0 0 0 0 0 0 0 0 0 0 0 0 0 0 0 0 0 0 0 0 0 0 0 0 0 0 0
0 0 0 0 0 0 0 0 0 0 0 0 0 0 0 0 0 0 0 0 0 0 0 0 0 0 0 0 0 0 0 0 0 0 0 0 0 0 0 0 0 0 0 0
0 0 0 0 0 0 0 0 0 0 0 0 0 0 0 0 0 0 0 0 0 0 0 0 0 0 0 0 0 0 0 0 0 0 0 0 0 0 0 0 0 0 0 0
0 0 0 0 0 0 0 0 0 0 0 0 0 0 0 0 0 0 0 0 0 0 0 0 0 0 0 0 0 0 0 0 0 0 0 0 0 0 0 0 0 0 0 0
0 0 0 0 0 0 0 0 0 0 0 0 0 0 0 0 0 0 0 0 0 0 0 0 0 0 0 0 0 0 0 0 0 0 0 0 0 0 0 0 0 0 0 0
0 0 0 0 0 0 0 0 0 0 0 0 0 0 0 0 0 0 0 0 0 0 0 0 0 0 0 0 0 0 0 0 0 0 0 0 0 0 0 0 0 0 0 0
0 0 0 0 0 0 0 0 0 0 0 0 0 0 0 0 0 0 0 0 0 0 0 0 0 0 0 0 0 0 0 0 0 0 0 0 0 0 0 0 0 0 0 0
0 0 0 0 0 0 0 0 0 0 0 0 0 0 0 0 0 0 0 0 0 0 0 0 0 0 0 0 0 0 0 0 0 0 0 0 0 0 0 0 0 0 0 0
0 0 0 0 0 0 0 0 0 0 0 0 0 0 0 0 0 0 0 0 0 0 0 0 0 0 0 0 0 0 0 0 0 0 0 0 0 0 0 0 0 0 0 0
0 0 0 0 0 0 0 0 0 0 0 0 0 0 0 0 0 0 0 0 0 0 0 0 0 0 0 0 0 0 0 0 0 0 0 0 0 0 0 0 0 0 0 0
0 0 0 0 0 0 0 0 0 0 0 0 0 0 0 0 0 0 0 0 0 0 0 0 0 0 0 0 0 0 0 0 0 0 0 0 0 0 0 0 0 0 0 0
0 0 0 0 0 0 0 0 0 0 0 0 0 0 0 0 0 0 0 0 0 0 0 0 0 0 0 0 0 0 0 0 0 0 0 0 0 0 0 0 0 0 0 0
0 0 0 0 0 0 0 0 0 0 0 0 0 0 0 0 0 0 0 0 0 0 0 0 0 0 0 0 0 0 0 0 0 0 0 0 0 0 0 0 0 0 0 0
0 0 0 0 0 0 0 0 0 0 0 0 0 0 0 0 0 0 0 0 0 0 0 0 0 0 0 0 0 0 0 0 0 0 0 0 0 0 0 0 0 0 0 0
0 0 0 0 0 0 0 0 0 0 0 0 0 0 0 0 0 0 0 0 0 0 0 0 0 0 0 0 0 0 0 0 0 0 0 0 0 0 0 0 0 0 0 0
0 0 0 0 0 0 0 0 0 0 0 0 0 0 0 0 0 0 0 0 0 0 0 0 0 0 0 0 0 0 0 0 0 0 0 0 0 0 0 0 0 0 0 0
0 0 0 0 0 0 0 0 0 0 0 0 0 0 0 0 0 0 0 0 0 0 0 0 0 0 0 0 0 0 0 0 0 0 0 0 0 0 0 0 0 0 0 0
Wind_Speed
8 8 7 9 10 9 11 12 11 11 12 12 9 8 7 6 5 4 4 4 4 4 3 3 2 1 1 1 1 0 1 1 0 0 0 1 1 2 2 2 2 3 3 2
7 6 7 9 11 12 12 13 14 14 15 10 8 7 6 5 5 5 5 5 5 4 4 3 3 2 2 1 1 0 0 0 0 0 1 1 1 2 2 2 2 3 3 3
5 4 5 9 10 11 10 10 10 13 12 8 7 7 7 6 5 5 6 6 5 5 4 4 4 3 3 2 2 1 1 1 1 1 1 2 2 2 2 2 3 3 3 3
3 3 9 4 1 6 9 10 10 11 10 8 8 7 7 5 5 6 6 6 6 5 5 4 4 4 3 2 2 2 2 2 2 2 2 2 2 2 3 3 3 3 3 4
3 6 9 6 3 4 6 8 7 10 9 8 6 6 5 3 3 5 6 6 6 6 5 4 4 3 3 3 3 3 3 3 3 3 3 3 3 3 3 3 3 3 3 4
5 6 7 3 1 1 3 7 3 6 7 6 5 6 4 3 5 6 6 5 5 5 4 4 3 3 3 3 4 4 4 4 4 4 4 4 4 4 3 3 4 3 4 4
7 8 8 4 1 3 5 4 3 4 6 6 7 8 6 6 6 6 5 5 5 4 4 3 3 3 4 4 4 4 4 4 4 4 4 4 4 4 4 3 4 4 4 4
6 8 8 2 4 5 5 4 4 6 6 7 8 8 7 6 6 5 5 5 4 4 4 3 3 4 4 4 4 4 4 4 4 4 4 3 4 4 4 4 4 4 4 4
7 7 3 3 5 5 4 6 7 7 7 7 7 7 7 6 6 5 5 5 4 4 4 4 3 4 4 4 4 3 4 4 4 4 4 4 4 4 3 4 3 3 3 4
7 9 7 7 7 7 7 8 8 8 7 7 7 7 7 6 5 5 5 5 4 4 4 4 4 4 4 4 3 4 4 4 3 3 3 3 3 3 3 4 4 4 4 4
8 9 8 8 8 8 8 8 7 6 6 7 7 7 6 6 5 5 5 5 4 4 4 4 4 4 3 3 3 4 4 4 4 3 3 3 3 3 4 4 4 5 4 4
9 7 7 7 6 7 8 8 7 6 7 7 6 6 6 5 5 5 5 4 4 4 4 4 4 4 4 3 3 4 4 4 3 3 3 3 3 3 4 5 5 6 6 5
8 7 8 9 8 8 7 7 6 6 6 6 5 5 5 5 4 4 5 5 4 4 4 4 4 4 4 3 4 4 4 4 3 3 3 3 3 3 3 2 4 5 6 6
7 6 8 8 7 7 6 5 5 5 5 5 5 4 4 4 4 5 4 4 4 4 4 4 4 4 4 4 4 4 4 4 4 3 3 3 3 4 3 3 3 2 3 5
7 7 7 6 6 5 4 3 4 4 4 4 4 4 4 4 4 5 4 3 3 3 3 3 4 4 3 3 3 4 3 3 3 3 3 3 3 3 3 4 3 3 2 2
6 6 6 6 6 5 5 4 5 6 5 4 4 4 4 4 4 4 4 3 3 4 4 4 4 4 3 3 3 3 3 4 3 3 3 3 3 3 3 3 3 3 3 2
4 5 5 6 7 7 6 6 6 6 5 5 5 4 4 3 3 3 3 3 3 4 4 4 4 3 3 3 3 2 2 3 3 3 3 3 3 3 3 3 3 3 3 3
6 7 7 6 6 6 6 5 5 5 4 4 4 3 3 4 4 4 3 3 3 3 3 3 3 3 3 3 3 2 2 2 2 2 2 3 3 3 3 3 3 3 2 2
6 6 5 5 5 5 5 5 5 4 4 3 3 4 4 4 4 3 3 2 3 3 3 3 3 3 3 3 3 2 2 2 2 2 2 2 2 2 2 3 3 3 2 2
3 3 3 3 3 3 4 4 3 3 3 3 3 3 3 3 3 2 3 3 3 3 3 3 2 2 3 3 3 2 2 2 2 2 2 2 2 2 2 2 2 2 2 2
2 2 2 3 3 3 3 3 3 3 3 2 3 3 3 3 2 2 2 3 2 2 2 3 2 2 2 2 2 1 1 2 2 2 2 2 2 2 2 2 2 2 2 2
2 2 3 2 2 3 3 2 2 2 2 2 2 2 2 2 2 2 2 2 2 3 2 2 2 2 2 2 1 1 1 1 1 1 2 2 2 2 2 2 2 2 2 2
2 2 2 2 2 2 2 2 1 2 2 2 2 2 2 2 2 2 2 1 1 3 2 2 2 3 2 1 1 1 1 1 1 1 2 2 2 2 2 2 2 2 2 2
2 2 2 2 1 1 2 2 2 1 1 1 2 2 2 1 1 1 2 2 3 3 2 2 2 2 2 1 0 1 1 1 1 1 2 2 2 2 2 2 2 2 2 2
2 1 1 1 0 1 1 1 1 1 1 1 2 2 1 1 1 2 1 1 2 2 2 2 3 3 2 1 1 1 1 1 1 2 2 2 2 2 2 2 2 2 2 2
1 1 1 1 1 1 1 1 1 1 1 1 2 2 2 1 1 1 1 1 2 2 2 1 2 2 1 1 1 1 1 1 2 1 2 2 2 2 2 2 2 2 2 2
1 1 1 1 1 1 1 1 1 1 1 1 1 1 1 1 1 1 1 1 1 1 1 1 1 1 1 1 1 1 1 1 1 1 1 1 1 1 1 2 1 1 1 2
Wind_Direction
270 278 261 257 252 237 229 234 244 258 264 276 290 297 299 297 301 306 308 310 308 308 311 310 314 324 325 336 15 71 100 87 65 342 193 157 163 172 179 191 199 198 198 199
268 265 262 259 258 246 241 243 248 262 269 279 289 291 291 291 291 294 297 299 298 298 299 298 300 301 295 302 296 279 170 220 266 273 223 189 184 182 185 201 207 205 207 211
261 287 276 258 247 234 235 237 238 249 262 286 289 290 289 285 283 292 297 295 292 288 283 283 280 271 261 260 258 244 238 250 255 242 239 220 205 195 202 214 213 214 218 218
259 255 244 262 277 235 236 247 242 252 269 278 282 291 289 276 276 293 301 297 294 289 284 281 274 267 258 246 240 233 235 244 252 243 242 234 218 213 218 222 222 222 225 229
230 250 268 276 254 223 236 262 253 252 268 288 304 293 273 267 279 291 292 293 294 291 282 273 265 258 243 234 234 234 237 243 245 238 236 235 230 230 229 227 229 233 232 232
227 248 254 280 347 219 231 264 266 259 271 286 294 277 293 319 299 299 298 295 293 292 284 271 265 249 230 233 236 240 242 243 242 236 233 235 238 237 235 230 231 234 236 237
230 248 263 279 229 188 233 283 325 283 276 273 271 281 303 303 295 292 295 294 294 287 281 274 268 243 232 236 245 253 248 239 236 234 234 234 237 237 232 229 229 233 238 240
214 232 251 167 174 218 269 313 298 294 288 278 279 288 292 294 293 295 298 294 293 286 285 284 268 248 244 248 258 259 245 234 234 236 236 232 231 232 229 225 226 232 239 244
220 239 293 214 235 260 280 281 286 288 290 284 279 281 286 290 291 292 292 289 286 280 281 284 274 255 249 256 259 251 241 235 236 239 239 234 231 231 229 226 227 230 232 239
254 257 264 263 266 271 274 277 282 282 282 276 273 276 278 280 283 286 287 284 282 276 274 281 282 272 261 259 255 243 237 237 237 236 237 236 232 229 228 227 228 230 230 236
253 269 282 266 260 270 279 282 283 284 281 275 272 271 270 274 276 277 281 281 276 271 271 277 280 274 271 261 242 239 239 237 237 236 238 238 238 237 236 238 240 238 234 232
245 254 257 276 286 284 279 278 279 284 287 283 272 267 268 271 273 275 276 277 273 271 270 272 272 271 269 263 244 236 236 236 235 232 232 234 237 246 250 248 256 252 248 245
256 271 271 280 287 286 279 279 281 279 280 284 280 269 265 269 274 276 275 274 271 271 270 268 266 267 266 260 249 242 240 241 235 231 230 231 233 236 242 246 241 242 242 244
254 262 267 269 276 286 287 287 288 285 283 281 278 275 268 270 274 274 275 278 277 271 269 266 263 267 270 260 252 251 247 245 241 233 231 232 233 234 235 238 240 242 242 239
254 250 257 274 284 287 289 288 285 284 289 290 283 273 268 267 272 276 281 283 274 265 264 264 265 270 275 263 253 252 249 240 240 236 232 232 231 233 232 234 239 242 246 237
258 259 257 262 270 278 281 277 274 279 283 284 284 281 276 271 272 276 278 272 263 263 264 264 267 273 275 266 257 255 249 240 244 237 228 225 224 225 225 225 228 231 235 238
240 249 255 266 270 273 272 270 268 272 276 275 278 282 281 276 273 273 278 280 274 268 265 263 269 275 270 263 259 255 249 237 237 234 230 225 223 222 220 221 224 229 238 239
244 248 246 252 258 265 271 272 270 271 272 275 279 273 263 258 262 269 277 284 285 281 272 268 270 272 268 266 265 254 245 241 236 233 232 227 223 220 219 221 225 232 242 242
248 250 255 256 257 257 261 266 269 272 276 269 261 260 260 261 264 268 270 267 267 273 280 278 277 272 270 270 269 246 238 238 241 240 236 226 227 222 220 221 226 232 236 240
252 250 255 264 268 262 261 266 270 271 268 260 260 265 267 267 264 260 258 261 264 275 280 282 279 279 279 270 274 251 239 235 236 237 233 229 225 224 225 224 226 232 236 237
267 262 259 266 274 273 265 262 258 264 271 260 252 257 265 270 260 250 253 275 299 296 282 279 282 278 273 272 275 256 247 243 237 233 229 229 229 229 226 224 225 230 235 237
278 274 273 274 275 280 283 272 259 259 270 274 275 267 259 263 262 266 267 265 284 297 300 283 285 284 286 286 265 246 242 244 241 234 230 227 227 229 228 226 227 231 236 241
280 282 281 278 273 283 298 293 275 254 253 256 256 253 255 265 261 260 284 294 289 300 304 293 300 300 300 303 276 257 249 247 246 242 242 241 238 231 225 225 228 231 234 236
299 301 297 291 272 272 301 316 318 305 292 285 282 269 263 276 293 292 283 292 313 320 323 321 326 327 329 328 290 272 261 259 259 256 252 249 247 239 228 224 226 228 232 238
309 306 296 252 231 272 294 321 343 350 346 334 329 324 308 288 277 296 309 306 317 331 332 328 335 341 348 335 301 283 277 270 265 263 256 250 246 238 233 231 231 232 234 236
306 301 293 286 274 276 286 303 316 320 326 331 336 342 345 343 331 313 310 313 317 331 335 324 322 331 335 326 311 299 288 283 282 276 265 260 251 241 233 230 238 239 239 239
349 353 352 357 351 320 303 296 293 299 302 303 317 327 338 342 340 335 330 329 334 338 333 326 322 324 327 324 323 322 314 304 293 283 273 265 254 239 228 227 234 238 239 239